DW1410 Weather Reports


time (UTC)temp
C
wind
direction
speed
KPH
gust
KPH
rain 1hr
cm
rain 24hr
cm
rain mn
cm
humidity
%
barometer
mb
20260507104601 13 222 1.6 6.4 0.00 0.00 0.00 26 1014.0
20260507103100 12 284 1.6 9.7 0.00 0.00 0.00 29 1013.9
20260507101600 12 279 1.6 8.0 0.00 0.00 0.00 27 1013.8
20260507100121 12 272 3.2 8.0 0.00 0.00 0.00 29 1013.8
20260507100004 12 339 3.2 6.4 0.00 0.00 0.00 29 1013.9
20260507094607 12 189 1.6 11.3 0.00 0.00 0.00 28 1013.7
20260507093100 11 295 4.8 12.9 0.00 0.00 0.00 28 1013.7
20260507091635 11 190 1.6 9.7 0.00 0.00 0.00 28 1013.9
20260507090100 11 178 0.0 12.9 0.00 0.00 0.00 28 1014.0
20260507090004 11 178 0.0 12.9 0.00 0.00 0.00 28 1014.0
20260507084503 11 184 4.8 12.9 0.00 0.00 0.00 28 1014.0
20260507083001 11 195 4.8 12.9 0.00 0.00 0.00 29 1014.0
20260507081503 10 200 1.6 8.0 0.00 0.00 0.00 31 1014.1
20260507080003 10 302 3.2 9.7 0.00 0.00 0.00 30 1014.1
20260507074500 10 305 0.0 8.0 0.00 0.00 0.00 32 1014.1
20260507073001 10 281 4.8 9.7 0.00 0.00 0.00 33 1014.1
20260507071500 10 279 1.6 9.7 0.00 0.00 0.00 33 1014.3
20260507070011 10 54 1.6 11.3 0.00 0.00 0.00 34 1014.1
20260507064501 8 85 1.6 8.0 0.00 0.00 0.00 35 1014.1
20260507063000 8 37 1.6 14.5 0.00 0.00 0.00 39 1014.2
20260507061502 7 24 6.4 12.9 0.00 0.00 0.00 40 1014.3
20260507060003 7 85 3.2 14.5 0.00 0.00 0.00 44 1014.2
20260507054500 6 37 4.8 12.9 0.00 0.00 0.00 47 1014.1
20260507053001 5 26 4.8 11.3 0.00 0.00 0.00 50 1014.0
20260507051501 4 59 4.8 12.9 0.00 0.00 0.00 52 1014.1
20260507050002 3 26 4.8 9.7 0.00 0.00 0.00 54 1014.1
20260507044500 2 72 4.8 11.3 0.00 0.00 0.00 55 1014.1
20260507043001 2 49 4.8 9.7 0.00 0.00 0.00 56 1014.1
20260507041500 1 28 4.8 9.7 0.00 0.00 0.00 58 1014.2
20260507040004 1 38 6.4 11.3 0.00 0.00 0.00 60 1014.1
20260507034500 0 42 3.2 9.7 0.00 0.00 0.00 62 1014.1
20260507033101 0 29 3.2 6.4 0.00 0.00 0.00 63 1014.1
20260507031600 -1 34 4.8 9.7 0.00 0.00 0.00 64 1014.0
20260507030101 -1 28 4.8 8.0 0.00 0.00 0.00 66 1013.9
20260507030006 -1 47 4.8 8.0 0.00 0.00 0.00 67 1013.9
20260507024601 -1 42 3.2 8.0 0.00 0.00 0.00 67 1014.0
20260507023110 -1 42 3.2 8.0 0.00 0.00 0.00 68 1013.9
20260507021601 -1 42 4.8 8.0 0.00 0.00 0.00 68 1014.0
20260507020105 -1 53 3.2 6.4 0.00 0.00 0.00 68 1013.9
20260507020003 -1 63 3.2 6.4 0.00 0.00 0.00 68 1013.9
20260507014602 -1 42 3.2 6.4 0.00 0.00 0.00 68 1013.7
20260506231502 -1 355 0.0 1.6 0.00 0.00 0.00 71 1013.0
20260506230004 -1 355 1.6 4.8 0.00 0.00 0.00 70 1012.9
20260506224501 -1 355 0.0 3.2 0.00 0.00 0.00 71 1013.0
20260506223001 -1 355 1.6 3.2 0.00 0.00 0.00 70 1013.0
20260506221501 0 355 0.0 3.2 0.00 0.00 0.00 68 1012.8
20260506220003 0 355 0.0 3.2 0.00 0.00 0.00 67 1012.8
20260506214559 0 355 0.0 3.2 0.00 0.00 0.00 67 1012.8
20260506213103 0 355 0.0 1.6 0.00 0.00 0.00 64 1012.7
20260506211559 0 355 1.6 3.2 0.00 0.00 0.00 63 1012.7
20260506210007 1 355 0.0 3.2 0.00 0.00 0.00 60 1012.6
20260506204602 1 355 1.6 3.2 0.00 0.00 0.00 59 1012.6
20260506203122 1 355 0.0 3.2 0.00 0.00 0.00 57 1012.6
20260506201559 2 355 0.0 3.2 0.00 0.00 0.00 57 1012.7
20260506200001 2 355 0.0 3.2 0.00 0.00 0.00 54 1012.7
20260506194601 3 355 0.0 4.8 0.00 0.00 0.00 50 1012.8
20260506193106 3 290 0.0 1.6 0.00 0.00 0.00 49 1012.7
20260506191559 4 290 0.0 1.6 0.00 0.00 0.00 48 1012.6
20260506190002 5 290 0.0 0.0 0.00 0.00 0.00 45 1012.6
20260506184600 6 290 0.0 0.0 0.00 0.00 0.00 40 1012.5
20260506183109 6 290 0.0 3.2 0.00 0.00 0.00 38 1012.4
20260506181604 7 296 0.0 3.2 0.00 0.00 0.00 37 1012.5
20260506180100 7 273 0.0 8.0 0.00 0.00 0.00 36 1012.4
20260506180003 7 273 0.0 8.0 0.00 0.00 0.00 35 1012.4
20260506174600 8 285 0.0 6.4 0.00 0.00 0.00 36 1012.3
20260506173110 8 282 1.6 8.0 0.00 0.00 0.00 34 1012.2
20260506171600 8 290 3.2 6.4 0.00 0.00 0.00 32 1012.2
20260506170110 9 314 1.6 8.0 0.00 0.00 0.00 31 1012.2
20260506170001 9 314 3.2 8.0 0.00 0.00 0.00 31 1012.1
20260506164625 9 275 3.2 9.7 0.00 0.00 0.00 31 1012.0
20260506163109 9 234 1.6 6.4 0.00 0.00 0.00 30 1012.0
20260506161601 9 293 0.0 11.3 0.00 0.00 0.00 31 1011.9
20260506160127 10 278 0.0 12.9 0.00 0.00 0.00 30 1011.9
20260506160003 10 278 1.6 12.9 0.00 0.00 0.00 30 1011.9
20260506154600 10 268 3.2 11.3 0.00 0.00 0.00 29 1011.9
20260506153100 10 286 4.8 12.9 0.00 0.00 0.00 29 1011.9
20260506151605 10 267 3.2 8.0 0.00 0.00 0.00 28 1011.9
20260506150108 10 312 3.2 14.5 0.00 0.00 0.00 29 1011.9
20260506150002 10 293 1.6 14.5 0.00 0.00 0.00 29 1011.9
20260506144603 10 325 3.2 9.7 0.00 0.00 0.00 27 1012.0
20260506143100 10 165 4.8 9.7 0.00 0.00 0.00 28 1012.0
20260506141600 10 332 3.2 25.7 0.00 0.00 0.00 29 1011.9
20260506140100 10 253 1.6 11.3 0.00 0.00 0.00 29 1012.0
20260506140002 10 253 4.8 11.3 0.00 0.00 0.00 28 1012.0
20260506134600 10 286 4.8 17.7 0.00 0.00 0.00 27 1012.0
20260506133115 11 240 3.2 17.7 0.00 0.00 0.00 28 1012.1
20260506131616 11 207 3.2 9.7 0.00 0.00 0.00 28 1012.0
20260506130100 10 330 3.2 11.3 0.00 0.00 0.00 27 1011.9
20260506130003 10 327 4.8 11.3 0.00 0.00 0.00 26 1012.0
20260506124600 11 309 8.0 20.9 0.00 0.00 0.00 27 1011.9
20260506123100 11 230 3.2 14.5 0.00 0.00 0.00 29 1012.1
20260506121601 10 208 3.2 16.1 0.00 0.00 0.00 29 1012.1
20260506120110 10 288 4.8 12.9 0.00 0.00 0.00 27 1012.0
20260506120004 10 321 6.4 12.9 0.00 0.00 0.00 28 1012.0
20260506114600 10 227 8.0 17.7 0.00 0.00 0.00 27 1012.1
20260506113100 10 321 8.0 16.1 0.00 0.00 0.00 27 1012.1
20260506111559 11 263 3.2 14.5 0.00 0.00 0.00 30 1012.1
20260506110114 11 126 3.2 12.9 0.00 0.00 0.00 32 1011.9
20260506110002 11 309 3.2 12.9 0.00 0.00 0.00 30 1011.9